• In Czech Republic
  • List of Countries
  • For 7 days
  • Water Temperature
  • Satellite Maps
  • Weather Map
  • Weather Widgets
  • user-avatar
    Login

    Hourly Weather Mikołów

    Today, 24 June, Sunday

    Time Temperature Precipitation Wind Pressure Humidity
    00:00 +10°C° 0 mm 3 mps 735 mmHg 90%
    01:00 +10°C° 0 mm 3 mps 735 mmHg 92%
    02:00 +10°C° 0.3 mm 3 mps 735 mmHg 93%
    03:00 +10°C° 0.3 mm 3 mps 735 mmHg 93%
    04:00 +10°C° 0.3 mm 3 mps 735 mmHg 93%
    05:00 +10°C° 0.7 mm 3 mps 735 mmHg 93%
    06:00 +10°C° 0.7 mm 3 mps 735 mmHg 92%
    07:00 +10°C° 0.7 mm 3 mps 734 mmHg 91%
    08:00 +11°C° 0.2 mm 4 mps 734 mmHg 88%
    09:00 +12°C° 0.2 mm 4 mps 734 mmHg 85%
    10:00 +13°C° 0.2 mm 4 mps 734 mmHg 81%
    11:00 +13°C° 0.4 mm 4 mps 734 mmHg 78%
    12:00 +14°C° 0.4 mm 4 mps 734 mmHg 75%
    13:00 +15°C° 0.4 mm 4 mps 734 mmHg 71%
    14:00 +15°C° 0.3 mm 4 mps 734 mmHg 69%
    15:00 +17°C° 0.3 mm 4 mps 734 mmHg 67%
    16:00 +17°C° 0.3 mm 4 mps 734 mmHg 66%
    17:00 +15°C° 0.3 mm 4 mps 734 mmHg 72%
    18:00 +14°C° 0.3 mm 3 mps 733 mmHg 77%
    19:00 +13°C° 0.3 mm 3 mps 733 mmHg 83%
    20:00 +12°C° 0.1 mm 3 mps 734 mmHg 86%
    21:00 +12°C° 0.1 mm 2 mps 734 mmHg 90%
    22:00 +12°C° 0.1 mm 2 mps 734 mmHg 93%
    23:00 +12°C° 0 mm 2 mps 735 mmHg 93%

    Tomorrow, 25 June, Monday

    Time Temperature Precipitation Wind Pressure Humidity
    00:00 +10°C° 0 mm 2 mps 735 mmHg 93%
    01:00 +10°C° 0 mm 2 mps 735 mmHg 93%
    02:00 +10°C° 0 mm 2 mps 735 mmHg 94%
    03:00 +10°C° 0 mm 2 mps 735 mmHg 94%
    04:00 +10°C° 0 mm 2 mps 735 mmHg 95%
    05:00 +10°C° 0 mm 2 mps 735 mmHg 93%
    06:00 +12°C° 0 mm 2 mps 735 mmHg 91%
    07:00 +13°C° 0 mm 2 mps 736 mmHg 89%
    08:00 +14°C° 0 mm 2 mps 736 mmHg 85%
    09:00 +14°C° 0 mm 2 mps 736 mmHg 82%
    10:00 +15°C° 0 mm 2 mps 736 mmHg 78%
    11:00 +16°C° 0 mm 2 mps 736 mmHg 72%
    12:00 +18°C° 0 mm 2 mps 736 mmHg 66%
    13:00 +19°C° 0 mm 2 mps 736 mmHg 60%
    14:00 +19°C° 0 mm 2 mps 736 mmHg 57%
    15:00 +20°C° 0 mm 2 mps 736 mmHg 54%
    16:00 +21°C° 0 mm 2 mps 736 mmHg 51%
    17:00 +20°C° 0 mm 2 mps 736 mmHg 57%
    18:00 +18°C° 0 mm 2 mps 736 mmHg 62%
    19:00 +18°C° 0 mm 1 mps 736 mmHg 68%
    20:00 +16°C° 0 mm 1 mps 736 mmHg 72%
    21:00 +15°C° 0 mm 1 mps 737 mmHg 76%
    22:00 +13°C° 0 mm 0 mps 737 mmHg 79%
    23:00 +13°C° 0 mm 1 mps 737 mmHg 81%

    Day after tomorrow, 26 June, Tuesday

    Time Temperature Precipitation Wind Pressure Humidity
    00:00 +13°C° 0 mm 1 mps 737 mmHg 82%
    01:00 +13°C° 0 mm 1 mps 737 mmHg 83%
    02:00 +13°C° 0.1 mm 1 mps 737 mmHg 84%
    03:00 +12°C° 0.1 mm 1 mps 737 mmHg 85%
    04:00 +12°C° 0.1 mm 1 mps 737 mmHg 87%
    05:00 +13°C° 0 mm 1 mps 737 mmHg 83%
    06:00 +15°C° 0 mm 2 mps 737 mmHg 78%
    07:00 +17°C° 0 mm 2 mps 737 mmHg 74%
    08:00 +18°C° 0.3 mm 2 mps 737 mmHg 68%
    09:00 +19°C° 0.3 mm 2 mps 737 mmHg 63%
    10:00 +21°C° 0.3 mm 3 mps 737 mmHg 57%
    11:00 +21°C° 0.2 mm 3 mps 737 mmHg 54%
    12:00 +22°C° 0.2 mm 3 mps 737 mmHg 51%
    13:00 +24°C° 0.2 mm 3 mps 737 mmHg 49%
    14:00 +22°C° 0.1 mm 3 mps 737 mmHg 50%
    15:00 +22°C° 0.1 mm 3 mps 737 mmHg 52%
    16:00 +22°C° 0.1 mm 3 mps 736 mmHg 53%
    17:00 +21°C° 0.4 mm 3 mps 736 mmHg 62%
    18:00 +19°C° 0.4 mm 3 mps 736 mmHg 71%
    19:00 +18°C° 0.4 mm 2 mps 736 mmHg 80%
    20:00 +17°C° 0.3 mm 2 mps 736 mmHg 83%
    21:00 +15°C° 0.3 mm 2 mps 737 mmHg 86%
    22:00 +14°C° 0.3 mm 1 mps 737 mmHg 90%
    23:00 +14°C° 0 mm 1 mps 737 mmHg 91%

    27 June, Wednesday

    Time Temperature Precipitation Wind Pressure Humidity
    00:00 +13°C° 0 mm 1 mps 737 mmHg 91%
    01:00 +13°C° 0 mm 1 mps 737 mmHg 92%
    02:00 +13°C° 0 mm 1 mps 736 mmHg 93%
    03:00 +12°C° 0 mm 1 mps 736 mmHg 93%
    04:00 +12°C° 0 mm 1 mps 736 mmHg 94%
    05:00 +13°C° 0.3 mm 2 mps 736 mmHg 90%
    06:00 +15°C° 0.3 mm 2 mps 737 mmHg 86%
    07:00 +16°C° 0.3 mm 3 mps 737 mmHg 82%
    08:00 +17°C° 0.2 mm 3 mps 736 mmHg 75%
    09:00 +18°C° 0.2 mm 3 mps 736 mmHg 68%
    10:00 +19°C° 0.2 mm 3 mps 736 mmHg 61%
    11:00 +19°C° 0.6 mm 4 mps 736 mmHg 62%
    12:00 +20°C° 0.6 mm 4 mps 736 mmHg 63%
    13:00 +20°C° 0.6 mm 4 mps 735 mmHg 64%
    14:00 +20°C° 0.8 mm 4 mps 735 mmHg 66%
    15:00 +19°C° 0.8 mm 4 mps 735 mmHg 68%
    16:00 +19°C° 0.8 mm 4 mps 735 mmHg 71%
    17:00 +18°C° 0.5 mm 3 mps 735 mmHg 74%
    18:00 +18°C° 0.5 mm 2 mps 734 mmHg 77%
    19:00 +18°C° 0.5 mm 1 mps 734 mmHg 80%
    20:00 +16°C° 0.5 mm 1 mps 734 mmHg 83%
    21:00 +15°C° 0.5 mm 1 mps 734 mmHg 87%
    22:00 +14°C° 0.5 mm 1 mps 734 mmHg 90%
    23:00 +13°C° 0.1 mm 1 mps 734 mmHg 91%

    28 June, Thursday

    Time Temperature Precipitation Wind Pressure Humidity
    00:00 +13°C° 0.1 mm 1 mps 733 mmHg 92%
    01:00 +12°C° 0.1 mm 1 mps 733 mmHg 93%
    02:00 +12°C° 0 mm 1 mps 733 mmHg 93%
    03:00 +12°C° 0 mm 1 mps 733 mmHg 94%
    04:00 +12°C° 0 mm 1 mps 733 mmHg 95%
    05:00 +13°C° 0.1 mm 2 mps 733 mmHg 93%
    06:00 +14°C° 0.1 mm 2 mps 733 mmHg 91%
    07:00 +14°C° 0.1 mm 3 mps 733 mmHg 89%
    08:00 +16°C° 0.1 mm 2 mps 733 mmHg 86%
    09:00 +17°C° 0.1 mm 2 mps 732 mmHg 84%
    10:00 +18°C° 0.1 mm 2 mps 732 mmHg 81%
    11:00 +19°C° 0.3 mm 2 mps 732 mmHg 76%
    12:00 +20°C° 0.3 mm 2 mps 731 mmHg 71%
    13:00 +21°C° 0.3 mm 2 mps 731 mmHg 65%
    14:00 +23°C° 0.4 mm 2 mps 731 mmHg 66%
    15:00 +23°C° 0.4 mm 2 mps 730 mmHg 66%
    16:00 +23°C° 0.4 mm 2 mps 730 mmHg 67%
    17:00 +21°C° 0.3 mm 2 mps 730 mmHg 71%
    18:00 +20°C° 0.3 mm 2 mps 730 mmHg 76%
    19:00 +20°C° 0.3 mm 1 mps 730 mmHg 80%
    20:00 +19°C° 0.1 mm 1 mps 730 mmHg 84%
    21:00 +18°C° 0.1 mm 1 mps 730 mmHg 88%
    22:00 +15°C° 0.1 mm 1 mps 730 mmHg 93%
    23:00 +15°C° 0.1 mm 1 mps 730 mmHg 94%

    29 June, Friday

    Time Temperature Precipitation Wind Pressure Humidity
    00:00 +15°C° 0.1 mm 1 mps 729 mmHg 95%
    01:00 +14°C° 0.1 mm 1 mps 729 mmHg 96%
    02:00 +14°C° 0 mm 1 mps 729 mmHg 96%
    03:00 +14°C° 0 mm 1 mps 729 mmHg 95%
    04:00 +14°C° 0 mm 1 mps 729 mmHg 95%
    05:00 +15°C° 0 mm 1 mps 729 mmHg 91%
    06:00 +18°C° 0 mm 1 mps 729 mmHg 87%
    07:00 +19°C° 0 mm 1 mps 729 mmHg 82%
    08:00 +19°C° 0 mm 2 mps 729 mmHg 74%
    09:00 +21°C° 0 mm 2 mps 729 mmHg 66%
    10:00 +24°C° 0 mm 2 mps 729 mmHg 57%
    11:00 +24°C° 0 mm 2 mps 729 mmHg 54%
    12:00 +25°C° 0 mm 2 mps 729 mmHg 51%
    13:00 +26°C° 0 mm 2 mps 729 mmHg 47%
    14:00 +26°C° 0 mm 2 mps 729 mmHg 48%
    15:00 +26°C° 0 mm 2 mps 729 mmHg 49%
    16:00 +26°C° 0 mm 2 mps 729 mmHg 49%
    17:00 +24°C° 0.1 mm 2 mps 729 mmHg 55%
    18:00 +23°C° 0.1 mm 2 mps 729 mmHg 61%
    19:00 +21°C° 0.1 mm 2 mps 729 mmHg 67%
    20:00 +20°C° 0 mm 2 mps 729 mmHg 72%
    21:00 +18°C° 0 mm 2 mps 730 mmHg 77%
    22:00 +17°C° 0 mm 2 mps 730 mmHg 81%
    23:00 +17°C° 0 mm 2 mps 730 mmHg 84%
    Show more